User: anonymous   Login
Location: Unspecified
(0.0000°N, 0.0000°E)
Time: 02:01:22
(UTC+00:00)
Language:

TBA - TO BE ASSIGNED - Orbit

View from above orbital plane
View from above orbital plane
View from above satellite
View from above satellite

Ground track
Ground track

The orbit is defined by the following mean orbital elements,

1 67764U          26145.36180433 +.00000000 +00000-0 +56549-3 0 00001
2 67764  51.8844 208.7876 0005973 329.1169  30.9466 15.37865275    02
Epoch (UTC): 25 May 2026 08:40:59
Eccentricity: 0.0005973
inclination: 51.8844°
perigee height: 448 km
apogee height: 457 km
right ascension of ascending node: 208.7876°
argument of perigee: 329.1169°
revolutions per day: 15.37865275
mean anomaly at epoch: 30.9466°

The dashed part of the orbit path shows where the satellite is in the earth's shadow,  

DLR